| time (UTC) | temp F | wind direction | speed MPH | gust MPH | rain 1hr in | rain 24hr in | rain mn in | humidity % | barometer mb |
| 20260507141519 | 71 | 360 | 2.0 | 5.0 | 0.00 | 0.00 | 0.00 | 30 | 1009.8 |
| 20260507140018 | 70 | 360 | 2.0 | 4.0 | 0.00 | 0.00 | 0.00 | 31 | 1009.8 |
| 20260507134517 | 69 | 360 | 3.0 | 5.0 | 0.00 | 0.00 | 0.00 | 33 | 1009.7 |
| 20260507133016 | 68 | 360 | 2.0 | 9.0 | 0.00 | 0.00 | 0.00 | 31 | 1009.6 |
| 20260507131520 | 68 | 360 | 5.0 | 12.0 | 0.00 | 0.00 | 0.00 | 31 | 1009.3 |
| 20260507130013 | 67 | 360 | 4.0 | 9.0 | 0.00 | 0.00 | 0.00 | 32 | 1009.3 |
| 20260507124511 | 66 | 360 | 3.0 | 6.0 | 0.00 | 0.00 | 0.00 | 32 | 1009.4 |
| 20260507123011 | 67 | 360 | 0.0 | 3.0 | 0.00 | 0.00 | 0.00 | 33 | 1009.4 |
| 20260507121510 | 67 | 360 | 2.0 | 6.0 | 0.00 | 0.00 | 0.00 | 32 | 1009.3 |
| 20260507120023 | 67 | 360 | 3.0 | 6.0 | 0.00 | 0.00 | 0.00 | 32 | 1009.3 |
| 20260507114616 | 67 | 360 | 2.0 | 5.0 | 0.00 | 0.00 | 0.00 | 31 | 1009.4 |
| 20260507113008 | 67 | 360 | 3.0 | 9.0 | 0.00 | 0.00 | 0.00 | 31 | 1009.3 |
| 20260507111509 | 67 | 360 | 2.0 | 6.0 | 0.00 | 0.00 | 0.00 | 31 | 1009.3 |
| 20260507110005 | 67 | 360 | 2.0 | 6.0 | 0.00 | 0.00 | 0.00 | 31 | 1009.4 |
| 20260507104507 | 67 | 360 | 3.0 | 5.0 | 0.00 | 0.00 | 0.00 | 32 | 1009.5 |
| 20260507103002 | 67 | 360 | 1.0 | 4.0 | 0.00 | 0.00 | 0.00 | 33 | 1009.7 |
| 20260507101501 | 66 | 360 | 1.0 | 3.0 | 0.00 | 0.00 | 0.00 | 33 | 1009.8 |
| 20260507100059 | 67 | 360 | 1.0 | 4.0 | 0.00 | 0.00 | 0.00 | 33 | 1009.8 |
| 20260507094557 | 67 | 360 | 1.0 | 3.0 | 0.00 | 0.00 | 0.00 | 33 | 1010.0 |
| 20260507093058 | 67 | 360 | 1.0 | 3.0 | 0.00 | 0.00 | 0.00 | 33 | 1010.1 |
| 20260507091556 | 68 | 360 | 1.0 | 4.0 | 0.00 | 0.00 | 0.00 | 33 | 1010.1 |
| 20260507090055 | 68 | 360 | 2.0 | 4.0 | 0.00 | 0.00 | 0.00 | 32 | 1010.1 |
| 20260507084554 | 68 | 360 | 2.0 | 3.0 | 0.00 | 0.00 | 0.00 | 33 | 1010.3 |
| 20260507083048 | 68 | 360 | 0.0 | 2.0 | 0.00 | 0.00 | 0.00 | 32 | 1010.3 |
| 20260507081550 | 69 | 360 | 1.0 | 3.0 | 0.00 | 0.00 | 0.00 | 32 | 1010.4 |
| 20260507080048 | 69 | 360 | 1.0 | 3.0 | 0.00 | 0.00 | 0.00 | 32 | 1010.5 |
| 20260507074558 | 69 | 360 | 0.0 | 2.0 | 0.00 | 0.00 | 0.00 | 32 | 1010.5 |
| 20260507073042 | 69 | 360 | 1.0 | 2.0 | 0.00 | 0.00 | 0.00 | 32 | 1010.6 |
| 20260507071539 | 70 | 360 | 0.0 | 0.0 | 0.00 | 0.00 | 0.00 | 31 | 1010.5 |
| 20260507070037 | 70 | 360 | 0.0 | 2.0 | 0.00 | 0.00 | 0.00 | 31 | 1010.4 |
| 20260507064536 | 70 | 360 | 1.0 | 2.0 | 0.00 | 0.00 | 0.00 | 31 | 1010.4 |
| 20260507063036 | 71 | 360 | 0.0 | 0.0 | 0.00 | 0.00 | 0.00 | 31 | 1010.4 |
| 20260507061535 | 71 | 360 | 0.0 | 2.0 | 0.00 | 0.00 | 0.00 | 31 | 1010.4 |
| 20260507060034 | 71 | 360 | 0.0 | 0.0 | 0.00 | 0.00 | 0.00 | 30 | 1010.4 |
| 20260507054537 | 72 | 360 | 0.0 | 0.0 | 0.00 | 0.00 | 0.00 | 30 | 1010.3 |
| 20260507053035 | 72 | 360 | 0.0 | 0.0 | 0.00 | 0.00 | 0.00 | 28 | 1010.3 |
| 20260507051533 | 73 | 360 | 0.0 | 1.0 | 0.00 | 0.00 | 0.00 | 28 | 1010.3 |
| 20260507050032 | 73 | 360 | 0.0 | 0.0 | 0.00 | 0.00 | 0.00 | 27 | 1010.2 |
| 20260507044535 | 74 | 360 | 0.0 | 0.0 | 0.00 | 0.00 | 0.00 | 26 | 1010.2 |
| 20260507043032 | 75 | 360 | 0.0 | 0.0 | 0.00 | 0.00 | 0.00 | 26 | 1010.0 |
| 20260507041531 | 76 | 360 | 0.0 | 0.0 | 0.00 | 0.00 | 0.00 | 25 | 1009.9 |
| 20260507040030 | 76 | 360 | 0.0 | 0.0 | 0.00 | 0.00 | 0.00 | 24 | 1009.7 |
| 20260507034530 | 77 | 360 | 0.0 | 1.0 | 0.00 | 0.00 | 0.00 | 23 | 1009.5 |
| 20260507033032 | 78 | 360 | 0.0 | 1.0 | 0.00 | 0.00 | 0.00 | 22 | 1009.3 |
| 20260507031529 | 79 | 360 | 0.0 | 3.0 | 0.00 | 0.00 | 0.00 | 22 | 1009.2 |
| 20260507030027 | 79 | 360 | 0.0 | 2.0 | 0.00 | 0.00 | 0.00 | 21 | 1008.9 |
| 20260507024529 | 80 | 360 | 1.0 | 4.0 | 0.00 | 0.00 | 0.00 | 20 | 1008.8 |
| 20260507023028 | 80 | 360 | 1.0 | 4.0 | 0.00 | 0.00 | 0.00 | 20 | 1008.6 |
| 20260507021525 | 80 | 360 | 2.0 | 6.0 | 0.00 | 0.00 | 0.00 | 20 | 1008.5 |
| 20260507020025 | 81 | 360 | 1.0 | 5.0 | 0.00 | 0.00 | 0.00 | 20 | 1008.3 |
| 20260507014533 | 82 | 360 | 1.0 | 6.0 | 0.00 | 0.00 | 0.00 | 19 | 1008.3 |
| 20260507013024 | 85 | 360 | 3.0 | 5.0 | 0.00 | 0.00 | 0.00 | 18 | 1008.3 |
| 20260507011523 | 84 | 360 | 3.0 | 9.0 | 0.00 | 0.00 | 0.00 | 18 | 1008.4 |
| 20260507010022 | 84 | 360 | 1.0 | 9.0 | 0.00 | 0.00 | 0.00 | 19 | 1008.4 |
| 20260507004523 | 87 | 360 | 2.0 | 9.0 | 0.00 | 0.00 | 0.00 | 17 | 1008.3 |
| 20260507003022 | 87 | 360 | 2.0 | 5.0 | 0.00 | 0.00 | 0.00 | 18 | 1008.3 |
| 20260507001525 | 86 | 360 | 3.0 | 10.0 | 0.00 | 0.00 | 0.00 | 18 | 1008.2 |
| 20260507000031 | 87 | 360 | 1.0 | 6.0 | 0.00 | 0.00 | 0.00 | 18 | 1008.2 |
| 20260506234519 | 87 | 360 | 5.0 | 10.0 | 0.00 | 0.00 | 0.00 | 17 | 1008.3 |
| 20260506233017 | 86 | 360 | 4.0 | 9.0 | 0.00 | 0.00 | 0.00 | 18 | 1008.5 |
| 20260506231515 | 90 | 360 | 1.0 | 3.0 | 0.00 | 0.00 | 0.00 | 17 | 1008.5 |
| 20260506230013 | 89 | 360 | 2.0 | 5.0 | 0.00 | 0.00 | 0.00 | 18 | 1008.9 |
| 20260506224510 | 84 | 360 | 2.0 | 5.0 | 0.00 | 0.00 | 0.00 | 19 | 1009.1 |
| 20260506223008 | 85 | 360 | 2.0 | 10.0 | 0.00 | 0.00 | 0.00 | 19 | 1009.2 |
| 20260506221506 | 86 | 360 | 1.0 | 8.0 | 0.00 | 0.00 | 0.00 | 20 | 1009.3 |
| 20260506220007 | 87 | 360 | 0.0 | 4.0 | 0.00 | 0.00 | 0.00 | 19 | 1009.5 |
| 20260506214501 | 85 | 360 | 2.0 | 5.0 | 0.00 | 0.00 | 0.00 | 20 | 1009.9 |
| 20260506213115 | 82 | 360 | 6.0 | 11.0 | 0.00 | 0.00 | 0.00 | 20 | 1010.1 |
| 20260506211558 | 83 | 360 | 5.0 | 10.0 | 0.00 | 0.00 | 0.00 | 19 | 1010.4 |
| 20260506210057 | 82 | 360 | 2.0 | 10.0 | 0.00 | 0.00 | 0.00 | 21 | 1010.5 |
| 20260506204556 | 82 | 360 | 5.0 | 10.0 | 0.00 | 0.00 | 0.00 | 21 | 1010.7 |
| 20260506203055 | 81 | 360 | 2.0 | 8.0 | 0.00 | 0.00 | 0.00 | 21 | 1011.1 |
| 20260506201554 | 81 | 360 | 1.0 | 6.0 | 0.00 | 0.00 | 0.00 | 23 | 1011.1 |
| 20260506200053 | 82 | 360 | 3.0 | 11.0 | 0.00 | 0.00 | 0.00 | 22 | 1011.2 |
| 20260506194611 | 82 | 360 | 2.0 | 8.0 | 0.00 | 0.00 | 0.00 | 21 | 1011.3 |
| 20260506193057 | 80 | 360 | 2.0 | 8.0 | 0.00 | 0.00 | 0.00 | 27 | 1011.5 |
| 20260506191549 | 80 | 360 | 3.0 | 8.0 | 0.00 | 0.00 | 0.00 | 22 | 1011.8 |
| 20260506190046 | 79 | 360 | 4.0 | 8.0 | 0.00 | 0.00 | 0.00 | 23 | 1011.9 |
| 20260506184546 | 78 | 360 | 2.0 | 6.0 | 0.00 | 0.00 | 0.00 | 24 | 1012.1 |
| 20260506183046 | 79 | 360 | 3.0 | 9.0 | 0.00 | 0.00 | 0.00 | 25 | 1012.4 |
| 20260506181542 | 77 | 360 | 2.0 | 5.0 | 0.00 | 0.00 | 0.00 | 27 | 1012.6 |
| 20260506180047 | 76 | 360 | 1.0 | 9.0 | 0.00 | 0.00 | 0.00 | 30 | 1012.7 |
| 20260506174544 | 76 | 360 | 4.0 | 9.0 | 0.00 | 0.00 | 0.00 | 28 | 1012.7 |
| 20260506173039 | 75 | 360 | 2.0 | 8.0 | 0.00 | 0.00 | 0.00 | 28 | 1012.8 |
| 20260506171534 | 76 | 360 | 1.0 | 5.0 | 0.00 | 0.00 | 0.00 | 28 | 1012.7 |
| 20260506170031 | 74 | 360 | 1.0 | 4.0 | 0.00 | 0.00 | 0.00 | 32 | 1012.7 |
| 20260506164528 | 73 | 360 | 3.0 | 6.0 | 0.00 | 0.00 | 0.00 | 32 | 1012.7 |
| 20260506163048 | 72 | 360 | 1.0 | 5.0 | 0.00 | 0.00 | 0.00 | 35 | 1012.7 |
| 20260506161521 | 71 | 360 | 1.0 | 3.0 | 0.00 | 0.00 | 0.00 | 33 | 1012.7 |
| 20260506160021 | 70 | 360 | 1.0 | 4.0 | 0.00 | 0.00 | 0.00 | 34 | 1012.6 |
| 20260506154517 | 69 | 360 | 2.0 | 5.0 | 0.00 | 0.00 | 0.00 | 34 | 1012.8 |
| 20260506153013 | 68 | 360 | 1.0 | 3.0 | 0.00 | 0.00 | 0.00 | 36 | 1012.8 |
| 20260506151509 | 67 | 360 | 0.0 | 2.0 | 0.00 | 0.00 | 0.00 | 39 | 1012.8 |
| 20260506150005 | 65 | 360 | 1.0 | 3.0 | 0.00 | 0.00 | 0.00 | 42 | 1012.8 |
| 20260506144502 | 63 | 360 | 0.0 | 2.0 | 0.00 | 0.00 | 0.00 | 44 | 1012.7 |
| 20260506143108 | 62 | 360 | 0.0 | 4.0 | 0.00 | 0.00 | 0.00 | 45 | 1012.5 |